Location: ??
(35.4627°N, 139.3695°E)
Time: 05:11:09
(UTC+00:00)

Cosmos 1184 Rocket - Pass Details

Date: 25 November 2020
Orbit: 404 x 418 km, 81.2° (Epoch: 20 January)

Event Time Altitude Azimuth Distance (km) Brightness Sun altitude
Rises 19:40:11 0° 181° (S) 2,353 6.7 -21.8°
Reaches altitude 10° 19:42:13 10° 178° (S) 1,496 5.7 -21.4°
Maximum altitude 19:45:26 62° 97° (E) 476 3.2 -20.7°
Drops below altitude 10° 19:48:41 10° 15° (NNE) 1,509 5.6 -20.1°
Sets 19:50:44 0° 12° (NNE) 2,377 6.6 -19.7°
